Location: El Conde
(10.2895°N, 67.2409°W)
Time: 18:42:34
(UTC+00:00)

Cosmos 2173 Rocket - Pass Details

Date: 19 May 2024
Orbit: 943 x 1000 km, 83.0° (Epoch: 12 June)

Event Time Altitude Azimuth Distance (km) Brightness Sun altitude
Rises 23:19:06 0° 356° (N) 3,627 7.4 -8.8°
Reaches altitude 10° 23:21:36 10° 356° (N) 2,675 6.7 -9.4°
Maximum altitude 23:27:43 88° 271° (W) 950 4.0 -10.8°
Drops below altitude 10° 23:33:47 10° 178° (S) 2,655 6.0 -12.1°
Sets 23:36:16 0° 177° (S) 3,599 6.7 -12.7°
